| time (UTC) | temp F | wind direction | speed MPH | gust MPH | rain 1hr in | rain 24hr in | rain mn in | humidity % | barometer mb |
| 20260506193936 | 60 | 16 | 0.0 | 7.0 | 0.00 | 0.72 | 0.72 | 82 | 1011.3 |
| 20260506192935 | 60 | 73 | 2.0 | 5.0 | 0.00 | 0.72 | 0.72 | 83 | 1011.2 |
| 20260506192435 | 60 | 17 | 2.0 | 5.0 | 0.00 | 0.72 | 0.72 | 83 | 1011.2 |
| 20260506191936 | 60 | 76 | 1.0 | 5.0 | 0.00 | 0.72 | 0.72 | 83 | 1011.1 |
| 20260506190936 | 60 | 173 | 0.0 | 3.0 | 0.00 | 0.72 | 0.72 | 83 | 1011.0 |
| 20260506190435 | 60 | 139 | 3.0 | 12.0 | 0.00 | 0.72 | 0.72 | 83 | 1010.9 |
| 20260506185935 | 60 | 58 | 3.0 | 7.0 | 0.00 | 0.72 | 0.72 | 84 | 1010.8 |
| 20260506185436 | 60 | 263 | 2.0 | 5.0 | 0.00 | 0.72 | 0.72 | 83 | 1010.7 |
| 20260506184935 | 60 | 152 | 3.0 | 7.0 | 0.00 | 0.72 | 0.72 | 84 | 1010.7 |
| 20260506183435 | 60 | 45 | 2.0 | 7.0 | 0.00 | 0.72 | 0.72 | 85 | 1010.5 |
| 20260506182435 | 60 | 17 | 1.0 | 7.0 | 0.00 | 0.72 | 0.72 | 85 | 1010.4 |
| 20260506181935 | 60 | 328 | 2.0 | 7.0 | 0.00 | 0.72 | 0.72 | 85 | 1010.4 |
| 20260506181442 | 60 | 26 | 2.0 | 9.0 | 0.00 | 0.72 | 0.72 | 85 | 1010.3 |
| 20260506180935 | 60 | 89 | 2.0 | 8.0 | 0.00 | 0.72 | 0.72 | 85 | 1010.2 |
| 20260506175935 | 60 | 39 | 5.0 | 10.0 | 0.00 | 0.72 | 0.72 | 85 | 1010.0 |
| 20260506175435 | 61 | 94 | 5.0 | 12.0 | 0.00 | 0.72 | 0.72 | 85 | 1010.0 |
| 20260506174935 | 61 | 131 | 2.0 | 10.0 | 0.00 | 0.72 | 0.72 | 85 | 1010.0 |
| 20260506174438 | 61 | 340 | 2.0 | 7.0 | 0.00 | 0.72 | 0.72 | 85 | 1010.0 |
| 20260506173935 | 61 | 79 | 2.0 | 7.0 | 0.00 | 0.72 | 0.72 | 85 | 1009.9 |
| 20260506172935 | 61 | 63 | 4.0 | 9.0 | 0.00 | 0.72 | 0.72 | 84 | 1009.9 |
| 20260506172435 | 61 | 18 | 2.0 | 5.0 | 0.00 | 0.72 | 0.72 | 83 | 1009.8 |
| 20260506171935 | 61 | 39 | 4.0 | 9.0 | 0.00 | 0.72 | 0.72 | 83 | 1009.8 |
| 20260506171435 | 61 | 338 | 2.0 | 8.0 | 0.00 | 0.72 | 0.72 | 83 | 1009.7 |
| 20260506170942 | 62 | 12 | 5.0 | 10.0 | 0.00 | 0.72 | 0.72 | 82 | 1009.8 |
| 20260506170435 | 62 | 16 | 1.0 | 12.0 | 0.00 | 0.72 | 0.72 | 82 | 1009.7 |
| 20260506165935 | 62 | 5 | 2.0 | 7.0 | 0.00 | 0.72 | 0.72 | 82 | 1009.6 |
| 20260506165435 | 63 | 14 | 2.0 | 6.0 | 0.00 | 0.72 | 0.72 | 81 | 1009.6 |
| 20260506164935 | 63 | 265 | 2.0 | 6.0 | 0.00 | 0.72 | 0.72 | 81 | 1009.6 |
| 20260506164435 | 63 | 258 | 2.0 | 8.0 | 0.00 | 0.72 | 0.72 | 82 | 1009.7 |
| 20260506163935 | 63 | 298 | 1.0 | 5.0 | 0.00 | 0.72 | 0.72 | 82 | 1009.7 |
| 20260506163436 | 62 | 349 | 2.0 | 10.0 | 0.00 | 0.72 | 0.72 | 82 | 1009.8 |
| 20260506162935 | 62 | 335 | 2.0 | 5.0 | 0.00 | 0.72 | 0.72 | 82 | 1009.8 |
| 20260506162435 | 63 | 70 | 3.0 | 8.0 | 0.00 | 0.72 | 0.72 | 82 | 1009.7 |
| 20260506161935 | 63 | 55 | 3.0 | 7.0 | 0.00 | 0.72 | 0.72 | 81 | 1009.7 |
| 20260506161435 | 63 | 11 | 2.0 | 7.0 | 0.00 | 0.72 | 0.72 | 82 | 1009.7 |
| 20260506160940 | 63 | 286 | 2.0 | 6.0 | 0.00 | 0.72 | 0.72 | 82 | 1009.7 |
| 20260506160438 | 63 | 285 | 2.0 | 5.0 | 0.00 | 0.72 | 0.72 | 83 | 1009.7 |
| 20260506155936 | 63 | 354 | 3.0 | 8.0 | 0.00 | 0.72 | 0.72 | 82 | 1009.7 |
| 20260506154935 | 63 | 261 | 2.0 | 8.0 | 0.00 | 0.72 | 0.72 | 81 | 1009.6 |
| 20260506154435 | 64 | 274 | 1.0 | 6.0 | 0.00 | 0.72 | 0.72 | 80 | 1009.6 |
| 20260506153942 | 64 | 169 | 3.0 | 8.0 | 0.00 | 0.72 | 0.72 | 80 | 1009.7 |
| 20260506153436 | 65 | 139 | 3.0 | 12.0 | 0.00 | 0.72 | 0.72 | 82 | 1009.7 |
| 20260506152935 | 65 | 336 | 2.0 | 8.0 | 0.00 | 0.72 | 0.72 | 81 | 1009.6 |
| 20260506152435 | 65 | 246 | 5.0 | 7.0 | 0.00 | 0.72 | 0.72 | 80 | 1009.6 |
| 20260506151935 | 65 | 236 | 3.0 | 12.0 | 0.00 | 0.72 | 0.72 | 81 | 1009.5 |
| 20260506151437 | 65 | 223 | 3.0 | 9.0 | 0.00 | 0.72 | 0.72 | 82 | 1009.6 |
| 20260506150935 | 65 | 139 | 5.0 | 9.0 | 0.00 | 0.72 | 0.72 | 81 | 1009.6 |
| 20260506150435 | 65 | 200 | 5.0 | 12.0 | 0.00 | 0.72 | 0.72 | 80 | 1009.5 |
| 20260506145936 | 66 | 271 | 3.0 | 10.0 | 0.00 | 0.72 | 0.72 | 79 | 1009.5 |
| 20260506145451 | 66 | 217 | 5.0 | 9.0 | 0.00 | 0.72 | 0.72 | 78 | 1009.4 |
| 20260506144935 | 66 | 279 | 5.0 | 15.0 | 0.00 | 0.72 | 0.72 | 81 | 1009.4 |
| 20260506144435 | 65 | 331 | 2.0 | 6.0 | 0.00 | 0.72 | 0.72 | 80 | 1009.5 |
| 20260506143939 | 65 | 10 | 2.0 | 8.0 | 0.00 | 0.72 | 0.72 | 82 | 1009.5 |
| 20260506143437 | 64 | 195 | 3.0 | 8.0 | 0.00 | 0.72 | 0.72 | 81 | 1009.5 |
| 20260506142936 | 64 | 36 | 3.0 | 8.0 | 0.00 | 0.72 | 0.72 | 81 | 1009.5 |
| 20260506141935 | 65 | 221 | 2.0 | 7.0 | 0.00 | 0.72 | 0.72 | 79 | 1009.6 |
| 20260506141435 | 65 | 227 | 4.0 | 8.0 | 0.00 | 0.72 | 0.72 | 79 | 1009.6 |
| 20260506140935 | 65 | 207 | 3.0 | 9.0 | 0.00 | 0.72 | 0.72 | 82 | 1009.6 |
| 20260506140435 | 65 | 231 | 2.0 | 8.0 | 0.00 | 0.72 | 0.72 | 80 | 1009.6 |
| 20260506135935 | 65 | 344 | 2.0 | 8.0 | 0.00 | 0.72 | 0.72 | 80 | 1009.7 |
| 20260506134935 | 66 | 303 | 3.0 | 7.0 | 0.00 | 0.72 | 0.72 | 78 | 1009.7 |
| 20260506134435 | 66 | 298 | 4.0 | 12.0 | 0.00 | 0.72 | 0.72 | 78 | 1009.8 |
| 20260506133435 | 66 | 267 | 3.0 | 12.0 | 0.00 | 0.72 | 0.72 | 80 | 1009.8 |
| 20260506132937 | 65 | 200 | 6.0 | 12.0 | 0.00 | 0.72 | 0.72 | 80 | 1009.9 |
| 20260506132435 | 65 | 283 | 3.0 | 10.0 | 0.00 | 0.72 | 0.72 | 81 | 1009.8 |
| 20260506131940 | 65 | 195 | 5.0 | 10.0 | 0.00 | 0.72 | 0.72 | 80 | 1009.8 |
| 20260506131436 | 65 | 159 | 4.0 | 10.0 | 0.00 | 0.72 | 0.72 | 80 | 1009.8 |
| 20260506130935 | 65 | 226 | 5.0 | 9.0 | 0.00 | 0.72 | 0.72 | 84 | 1009.7 |
| 20260506125935 | 65 | 213 | 3.0 | 7.0 | 0.00 | 0.72 | 0.72 | 83 | 1009.7 |
| 20260506125435 | 65 | 283 | 2.0 | 10.0 | 0.00 | 0.72 | 0.72 | 83 | 1009.8 |
| 20260506124935 | 65 | 244 | 5.0 | 13.0 | 0.00 | 0.72 | 0.72 | 83 | 1009.8 |
| 20260506124437 | 64 | 177 | 2.0 | 6.0 | 0.00 | 0.72 | 0.72 | 85 | 1009.7 |
| 20260506123935 | 64 | 218 | 5.0 | 10.0 | 0.00 | 0.72 | 0.72 | 85 | 1009.7 |
| 20260506123442 | 64 | 221 | 4.0 | 10.0 | 0.00 | 0.72 | 0.72 | 86 | 1009.6 |
| 20260506122435 | 64 | 198 | 7.0 | 13.0 | 0.00 | 0.72 | 0.72 | 85 | 1009.5 |
| 20260506121438 | 64 | 269 | 3.0 | 12.0 | 0.00 | 0.72 | 0.72 | 86 | 1009.4 |
| 20260506120935 | 64 | 251 | 2.0 | 7.0 | 0.00 | 0.72 | 0.72 | 86 | 1009.4 |
| 20260506115935 | 63 | 250 | 2.0 | 5.0 | 0.00 | 0.72 | 0.72 | 87 | 1009.4 |
| 20260506114935 | 63 | 348 | 2.0 | 7.0 | 0.00 | 0.72 | 0.72 | 87 | 1009.4 |
| 20260506114435 | 63 | 173 | 1.0 | 5.0 | 0.00 | 0.72 | 0.72 | 87 | 1009.4 |
| 20260506113935 | 63 | 239 | 4.0 | 10.0 | 0.00 | 0.72 | 0.72 | 87 | 1009.4 |
| 20260506112936 | 63 | 196 | 5.0 | 12.0 | 0.00 | 0.72 | 0.72 | 87 | 1009.4 |
| 20260506112435 | 63 | 208 | 6.0 | 13.0 | 0.00 | 0.72 | 0.72 | 86 | 1009.4 |
| 20260506111935 | 63 | 219 | 6.0 | 10.0 | 0.00 | 0.72 | 0.72 | 86 | 1009.4 |
| 20260506111435 | 63 | 187 | 3.0 | 9.0 | 0.00 | 0.72 | 0.72 | 86 | 1009.4 |
| 20260506110935 | 63 | 219 | 5.0 | 12.0 | 0.00 | 0.72 | 0.72 | 86 | 1009.4 |
| 20260506110435 | 63 | 219 | 6.0 | 9.0 | 0.00 | 0.72 | 0.72 | 85 | 1009.4 |
| 20260506105935 | 63 | 233 | 5.0 | 9.0 | 0.00 | 0.72 | 0.72 | 86 | 1009.5 |
| 20260506105435 | 63 | 154 | 5.0 | 9.0 | 0.00 | 0.72 | 0.72 | 86 | 1009.5 |
| 20260506104936 | 63 | 217 | 4.0 | 9.0 | 0.00 | 0.72 | 0.72 | 85 | 1009.5 |
| 20260506104436 | 64 | 231 | 3.0 | 8.0 | 0.00 | 0.72 | 0.72 | 85 | 1009.4 |
| 20260506103935 | 64 | 212 | 2.0 | 7.0 | 0.00 | 0.72 | 0.72 | 84 | 1009.4 |
| 20260506103436 | 64 | 203 | 2.0 | 7.0 | 0.00 | 0.72 | 0.72 | 85 | 1009.4 |
| 20260506102936 | 64 | 248 | 2.0 | 6.0 | 0.00 | 0.72 | 0.72 | 85 | 1009.4 |
| 20260506101938 | 64 | 18 | 1.0 | 7.0 | 0.00 | 0.72 | 0.72 | 85 | 1009.4 |
| 20260506101437 | 64 | 276 | 3.0 | 7.0 | 0.00 | 0.72 | 0.72 | 84 | 1009.4 |
| 20260506100437 | 64 | 130 | 2.0 | 8.0 | 0.00 | 0.72 | 0.72 | 85 | 1009.4 |
| 20260506095935 | 64 | 44 | 2.0 | 10.0 | 0.00 | 0.72 | 0.72 | 85 | 1009.4 |
| 20260506095436 | 64 | 60 | 3.0 | 7.0 | 0.00 | 0.72 | 0.72 | 85 | 1009.4 |
| 20260506094935 | 64 | 38 | 2.0 | 7.0 | 0.00 | 0.72 | 0.72 | 86 | 1009.4 |
| 20260506093437 | 63 | 212 | 3.0 | 8.0 | 0.00 | 0.73 | 0.72 | 88 | 1009.3 |
| 20260506092942 | 63 | 260 | 2.0 | 3.0 | 0.00 | 0.73 | 0.72 | 89 | 1009.3 |
| 20260506092435 | 62 | 193 | 2.0 | 7.0 | 0.00 | 0.73 | 0.72 | 90 | 1009.3 |
| 20260506091935 | 61 | 253 | 1.0 | 3.0 | 0.00 | 0.73 | 0.72 | 90 | 1009.3 |
| 20260506091437 | 61 | 241 | 1.0 | 3.0 | 0.00 | 0.73 | 0.72 | 90 | 1009.3 |
| 20260506090937 | 61 | 302 | 2.0 | 5.0 | 0.00 | 0.73 | 0.72 | 90 | 1009.2 |
| 20260506090437 | 61 | 232 | 1.0 | 8.0 | 0.00 | 0.73 | 0.72 | 90 | 1009.2 |
| 20260506085936 | 61 | 214 | 2.0 | 5.0 | 0.00 | 0.73 | 0.72 | 92 | 1009.1 |
| 20260506085435 | 60 | 235 | 3.0 | 8.0 | 0.00 | 0.73 | 0.72 | 93 | 1009.1 |
| 20260506084938 | 60 | 194 | 4.0 | 6.0 | 0.00 | 0.73 | 0.72 | 95 | 1009.0 |
| 20260506084438 | 60 | 198 | 2.0 | 7.0 | 0.00 | 0.73 | 0.72 | 96 | 1008.9 |
| 20260506083942 | 60 | 206 | 2.0 | 6.0 | 0.00 | 0.73 | 0.72 | 96 | 1008.9 |
| 20260506083435 | 60 | 194 | 4.0 | 8.0 | 0.00 | 0.73 | 0.72 | 96 | 1008.8 |
| 20260506082937 | 60 | 203 | 5.0 | 9.0 | 0.00 | 0.73 | 0.72 | 96 | 1008.8 |
| 20260506082435 | 60 | 195 | 5.0 | 9.0 | 0.00 | 0.73 | 0.72 | 96 | 1008.8 |
| 20260506081937 | 60 | 204 | 6.0 | 14.0 | 0.00 | 0.73 | 0.72 | 96 | 1008.7 |
| 20260506080936 | 61 | 230 | 5.0 | 13.0 | 0.00 | 0.73 | 0.72 | 97 | 1008.5 |
| 20260506080435 | 61 | 210 | 6.0 | 13.0 | 0.00 | 0.73 | 0.72 | 97 | 1008.6 |
| 20260506073435 | 61 | 225 | 7.0 | 17.0 | 0.07 | 0.73 | 0.72 | 97 | 1008.3 |
| 20260506072935 | 61 | 218 | 9.0 | 17.0 | 0.08 | 0.73 | 0.72 | 97 | 1008.2 |
| 20260506072440 | 61 | 210 | 9.0 | 15.0 | 0.09 | 0.73 | 0.72 | 97 | 1008.1 |
| 20260506071935 | 61 | 214 | 7.0 | 15.0 | 0.09 | 0.73 | 0.72 | 97 | 1008.1 |
| 20260506071435 | 61 | 211 | 10.0 | 16.0 | 0.09 | 0.73 | 0.72 | 96 | 1008.0 |
| 20260506062437 | 60 | 227 | 6.0 | 15.0 | 0.01 | 0.67 | 0.64 | 95 | 1007.5 |
| 20260506061435 | 59 | 117 | 4.0 | 13.0 | 0.00 | 0.72 | 0.63 | 95 | 1007.7 |
| 20260506060935 | 59 | 121 | 3.0 | 8.0 | 0.00 | 0.75 | 0.63 | 95 | 1007.7 |
| 20260506060437 | 59 | 92 | 4.0 | 10.0 | 0.00 | 0.76 | 0.63 | 96 | 1007.8 |
| 20260506044935 | 56 | 32 | 0.0 | 1.0 | 0.06 | 1.22 | 0.63 | 94 | 1007.9 |
| 20260506044436 | 56 | 14 | 1.0 | 3.0 | 0.06 | 1.24 | 0.63 | 94 | 1007.8 |
| 20260506043935 | 56 | 28 | 1.0 | 3.0 | 0.06 | 1.27 | 0.63 | 94 | 1008.1 |
| 20260506043435 | 56 | 55 | 0.0 | 0.0 | 0.06 | 1.31 | 0.63 | 94 | 1008.2 |
| 20260506042935 | 56 | 341 | 0.0 | 3.0 | 0.06 | 1.37 | 0.63 | 93 | 1008.3 |
| 20260506042435 | 56 | 341 | 2.0 | 6.0 | 0.06 | 1.39 | 0.63 | 93 | 1008.3 |
| 20260506041935 | 56 | 6 | 3.0 | 7.0 | 0.06 | 1.43 | 0.63 | 93 | 1008.5 |
| 20260506041435 | 56 | 347 | 2.0 | 5.0 | 0.06 | 1.47 | 0.62 | 93 | 1008.6 |
| 20260506040935 | 56 | 357 | 1.0 | 2.0 | 0.04 | 1.49 | 0.61 | 93 | 1009.0 |
| 20260506040436 | 56 | 33 | 0.0 | 1.0 | 0.02 | 1.50 | 0.59 | 93 | 1009.1 |
| 20260506035935 | 56 | 24 | 0.0 | 1.0 | 0.02 | 1.57 | 0.58 | 93 | 1008.8 |
| 20260506035435 | 56 | 143 | 0.0 | 2.0 | 0.01 | 1.57 | 0.57 | 93 | 1008.9 |
| 20260506034936 | 56 | 150 | 2.0 | 5.0 | 0.00 | 1.58 | 0.57 | 93 | 1008.8 |
| 20260506034435 | 55 | 10 | 3.0 | 6.0 | 0.01 | 1.61 | 0.57 | 93 | 1008.7 |
| 20260506033935 | 55 | 79 | 1.0 | 2.0 | 0.02 | 1.64 | 0.57 | 93 | 1008.6 |
| 20260506033435 | 55 | 12 | 0.0 | 6.0 | 0.02 | 1.65 | 0.57 | 94 | 1008.5 |
| 20260506032941 | 55 | 37 | 1.0 | 7.0 | 0.02 | 1.66 | 0.57 | 94 | 1008.5 |
| 20260506032435 | 55 | 303 | 1.0 | 5.0 | 0.02 | 1.68 | 0.57 | 94 | 1008.5 |
| 20260506031937 | 55 | 123 | 2.0 | 5.0 | 0.02 | 1.70 | 0.57 | 94 | 1008.4 |
| 20260506031437 | 55 | 27 | 1.0 | 3.0 | 0.05 | 1.73 | 0.57 | 94 | 1008.4 |
| 20260506030936 | 55 | 323 | 3.0 | 10.0 | 0.05 | 1.75 | 0.57 | 94 | 1008.5 |
| 20260506025435 | 55 | 346 | 3.0 | 7.0 | 0.09 | 1.78 | 0.57 | 95 | 1008.9 |
| 20260506024935 | 55 | 21 | 2.0 | 8.0 | 0.11 | 1.79 | 0.57 | 95 | 1009.1 |
| 20260506024435 | 55 | 98 | 2.0 | 9.0 | 0.13 | 1.79 | 0.56 | 95 | 1009.3 |
| 20260506023935 | 55 | 294 | 2.0 | 5.0 | 0.14 | 1.79 | 0.55 | 95 | 1009.5 |
| 20260506023435 | 55 | 11 | 1.0 | 2.0 | 0.16 | 1.80 | 0.55 | 95 | 1009.7 |
| 20260506022935 | 55 | 328 | 0.0 | 1.0 | 0.19 | 1.81 | 0.55 | 95 | 1009.7 |
| 20260506022436 | 55 | 335 | 0.0 | 6.0 | 0.21 | 1.82 | 0.54 | 95 | 1009.7 |
| 20260506021935 | 55 | 280 | 1.0 | 5.0 | 0.24 | 1.83 | 0.54 | 94 | 1009.8 |
| 20260506021435 | 55 | 328 | 2.0 | 5.0 | 0.30 | 1.82 | 0.52 | 94 | 1009.8 |
| 20260506020935 | 55 | 347 | 1.0 | 3.0 | 0.35 | 1.83 | 0.52 | 94 | 1009.8 |
| 20260506020435 | 55 | 5 | 2.0 | 5.0 | 0.36 | 1.83 | 0.51 | 94 | 1010.0 |
| 20260506015938 | 56 | 334 | 1.0 | 3.0 | 0.35 | 1.82 | 0.50 | 93 | 1010.0 |
| 20260506014435 | 57 | 344 | 2.0 | 9.0 | 0.30 | 1.77 | 0.43 | 93 | 1010.4 |
| 20260506013935 | 58 | 323 | 0.0 | 3.0 | 0.28 | 1.76 | 0.41 | 93 | 1010.5 |
| 20260506012936 | 58 | 203 | 1.0 | 3.0 | 0.24 | 1.72 | 0.36 | 94 | 1010.8 |
| 20260506012435 | 58 | 188 | 2.0 | 3.0 | 0.20 | 1.69 | 0.33 | 93 | 1010.8 |
| 20260506011950 | 58 | 169 | 3.0 | 3.0 | 0.18 | 1.66 | 0.30 | 93 | 1010.5 |
| 20260506011435 | 58 | 136 | 2.0 | 3.0 | 0.10 | 1.59 | 0.22 | 93 | 1010.4 |
| 20260506010937 | 58 | 17 | 0.0 | 1.0 | 0.06 | 1.54 | 0.17 | 93 | 1010.2 |
| 20260506010435 | 58 | 14 | 0.0 | 1.0 | 0.04 | 1.53 | 0.15 | 93 | 1010.1 |
| 20260506005936 | 58 | 354 | 0.0 | 0.0 | 0.04 | 1.54 | 0.15 | 93 | 1010.2 |
| 20260506005435 | 58 | 354 | 0.0 | 0.0 | 0.04 | 1.55 | 0.15 | 93 | 1010.2 |
| 20260506004935 | 59 | 3 | 0.0 | 2.0 | 0.02 | 1.54 | 0.13 | 93 | 1010.1 |
| 20260506004437 | 59 | 56 | 2.0 | 3.0 | 0.02 | 1.55 | 0.13 | 93 | 1010.4 |
| 20260506003935 | 59 | 226 | 1.0 | 3.0 | 0.02 | 1.54 | 0.13 | 93 | 1010.5 |
| 20260506003435 | 59 | 135 | 2.0 | 6.0 | 0.02 | 1.54 | 0.13 | 93 | 1010.5 |
| 20260506002436 | 59 | 340 | 0.0 | 1.0 | 0.02 | 1.54 | 0.13 | 93 | 1010.2 |
| 20260506001935 | 59 | 340 | 0.0 | 1.0 | 0.01 | 1.54 | 0.12 | 93 | 1010.2 |
| 20260506001435 | 59 | 340 | 0.0 | 1.0 | 0.01 | 1.54 | 0.12 | 91 | 1010.2 |
| 20260506000935 | 59 | 340 | 0.0 | 0.0 | 0.00 | 1.53 | 0.11 | 91 | 1010.3 |
| 20260506000435 | 59 | 340 | 0.0 | 0.0 | 0.00 | 1.53 | 0.11 | 91 | 1010.3 |
| 20260505235935 | 60 | 340 | 0.0 | 1.0 | 0.00 | 1.53 | 0.11 | 91 | 1010.4 |
| 20260505234435 | 60 | 35 | 0.0 | 0.0 | 0.00 | 1.53 | 0.11 | 90 | 1010.8 |
| 20260505233935 | 60 | 60 | 0.0 | 1.0 | 0.00 | 1.53 | 0.11 | 90 | 1011.0 |
| 20260505232938 | 60 | 30 | 0.0 | 1.0 | 0.00 | 1.53 | 0.11 | 90 | 1011.1 |
| 20260505232435 | 60 | 60 | 1.0 | 3.0 | 0.00 | 1.53 | 0.11 | 89 | 1011.2 |
| 20260505231937 | 60 | 37 | 1.0 | 3.0 | 0.02 | 1.53 | 0.11 | 89 | 1011.4 |
| 20260505231435 | 60 | 26 | 1.0 | 2.0 | 0.07 | 1.53 | 0.11 | 88 | 1011.4 |
| 20260505230935 | 60 | 205 | 0.0 | 2.0 | 0.11 | 1.53 | 0.11 | 88 | 1011.6 |
| 20260505230436 | 60 | 173 | 1.0 | 2.0 | 0.11 | 1.53 | 0.11 | 88 | 1011.6 |
| 20260505225935 | 60 | 138 | 2.0 | 3.0 | 0.11 | 1.53 | 0.11 | 88 | 1011.6 |
| 20260505225435 | 60 | 206 | 1.0 | 3.0 | 0.11 | 1.53 | 0.11 | 87 | 1011.5 |
| 20260505224935 | 60 | 222 | 1.0 | 5.0 | 0.11 | 1.53 | 0.11 | 87 | 1011.5 |
| 20260505224443 | 60 | 212 | 1.0 | 3.0 | 0.11 | 1.53 | 0.11 | 87 | 1011.6 |
| 20260505223935 | 60 | 184 | 2.0 | 5.0 | 0.11 | 1.53 | 0.11 | 86 | 1011.7 |
| 20260505223438 | 61 | 176 | 4.0 | 5.0 | 0.11 | 1.53 | 0.11 | 86 | 1011.8 |
| 20260505222935 | 61 | 167 | 5.0 | 7.0 | 0.11 | 1.53 | 0.11 | 86 | 1011.8 |
| 20260505222435 | 61 | 187 | 1.0 | 3.0 | 0.11 | 1.53 | 0.11 | 85 | 1011.9 |
| 20260505221935 | 61 | 215 | 1.0 | 3.0 | 0.09 | 1.50 | 0.09 | 85 | 1012.0 |
| 20260505221438 | 61 | 205 | 0.0 | 2.0 | 0.04 | 1.46 | 0.04 | 84 | 1011.9 |
| 20260505220935 | 61 | 196 | 0.0 | 2.0 | 0.00 | 1.42 | 0.00 | 83 | 1011.9 |
| 20260505215936 | 61 | 151 | 0.0 | 0.0 | 0.00 | 1.42 | 0.00 | 83 | 1011.9 |
| 20260505215435 | 61 | 109 | 1.0 | 1.0 | 0.00 | 1.42 | 1.42 | 83 | 1011.9 |
| 20260505214935 | 61 | 215 | 0.0 | 0.0 | 0.00 | 1.42 | 1.42 | 83 | 1012.0 |
| 20260505214435 | 61 | 215 | 1.0 | 2.0 | 0.00 | 1.42 | 1.42 | 83 | 1011.9 |
| 20260505213936 | 61 | 48 | 1.0 | 3.0 | 0.00 | 1.42 | 1.42 | 83 | 1012.2 |
| 20260505213435 | 61 | 164 | 1.0 | 3.0 | 0.00 | 1.42 | 1.42 | 82 | 1012.2 |
| 20260505212938 | 61 | 87 | 0.0 | 1.0 | 0.00 | 1.42 | 1.42 | 82 | 1012.2 |
| 20260505212436 | 61 | 129 | 0.0 | 3.0 | 0.00 | 1.42 | 1.42 | 82 | 1012.2 |
| 20260505211936 | 61 | 137 | 1.0 | 3.0 | 0.00 | 1.42 | 1.42 | 82 | 1012.2 |
| 20260505211438 | 61 | 123 | 1.0 | 2.0 | 0.00 | 1.42 | 1.42 | 82 | 1012.3 |
| 20260505210435 | 61 | 95 | 2.0 | 3.0 | 0.00 | 1.42 | 1.42 | 83 | 1012.3 |
| 20260505205935 | 61 | 58 | 2.0 | 5.0 | 0.00 | 1.42 | 1.42 | 83 | 1012.5 |
| 20260505205435 | 61 | 139 | 1.0 | 5.0 | 0.00 | 1.42 | 1.42 | 83 | 1012.4 |
| 20260505204935 | 61 | 28 | 0.0 | 3.0 | 0.00 | 1.42 | 1.42 | 84 | 1012.4 |
| 20260505204437 | 61 | 67 | 0.0 | 3.0 | 0.00 | 1.42 | 1.42 | 84 | 1012.5 |
| 20260505203935 | 61 | 76 | 1.0 | 3.0 | 0.00 | 1.42 | 1.42 | 84 | 1012.6 |
| 20260505203435 | 61 | 302 | 2.0 | 3.0 | 0.00 | 1.42 | 1.42 | 84 | 1012.6 |
| 20260505202935 | 61 | 242 | 2.0 | 3.0 | 0.00 | 1.42 | 1.42 | 84 | 1012.6 |
| 20260505202437 | 61 | 264 | 1.0 | 3.0 | 0.00 | 1.42 | 1.42 | 84 | 1012.6 |
| 20260505201937 | 61 | 208 | 0.0 | 3.0 | 0.00 | 1.42 | 1.42 | 84 | 1012.6 |
| 20260505201436 | 61 | 227 | 0.0 | 3.0 | 0.00 | 1.42 | 1.42 | 84 | 1012.6 |
| 20260505200936 | 61 | 256 | 1.0 | 2.0 | 0.00 | 1.42 | 1.42 | 84 | 1012.5 |
| 20260505200436 | 61 | 255 | 1.0 | 3.0 | 0.00 | 1.42 | 1.42 | 84 | 1012.6 |
| 20260505195937 | 61 | 250 | 1.0 | 2.0 | 0.00 | 1.42 | 1.42 | 84 | 1012.6 |
| 20260505195435 | 61 | 249 | 1.0 | 5.0 | 0.00 | 1.42 | 1.42 | 84 | 1012.7 |
| 20260505194935 | 61 | 201 | 2.0 | 3.0 | 0.00 | 1.42 | 1.42 | 84 | 1012.7 |